{"data":{"norad_id":62691,"intl_designator":"2025-009CL","name":"TRANSPORTER-12 OBJECT CL","alt_names":[],"object_type":"PAYLOAD","status":"ACTIVE","operator":null,"country":"TBD","launch_date":"2025-01-14","launch_site_code":"AFWTR","launch_vehicle":null,"mission":null,"orbit_class":"UNKNOWN","rcs_meters":null,"size_class":null,"mass_kg":null,"dimensions":null,"purposes":[],"wikipedia_slug":null,"has_3d_model":false,"image_url":null,"decayed_at":null,"tle_current":{"epoch":"2026-05-24T23:48:03.650688Z","epoch_age_seconds":82526,"freshness":"FRESH","line1":"1 62691U 25009CL  26144.99170892  .00035326  00000+0  77265-3 0  9990","line2":"2 62691  97.3767 229.7930 0000861 259.7895 100.3256 15.44072794 75616","mean_motion":15.44072794,"eccentricity":8.61e-5,"inclination_deg":97.3767,"raan_deg":229.793,"arg_perigee_deg":259.7895,"mean_anomaly_deg":100.3256,"bstar":0.00077265,"rev_number":7561,"period_min":93.259851840897,"perigee_km":433.51731276044,"apogee_km":434.69038063424,"semimajor_km":6812.2408466973,"source":"CELESTRAK","updated_at":"2026-05-25T13:38:03.170132Z"}}}